Theta_e
302 303 304 304 304 305 306 306 304 307 311 316 321 322 329 332 337 341 343 343 346 347 352 353 354 355 354 352 352 355 359 361 362 367 369 370 371 372 373 373 371 373 373 374
298 303 304 302 305 305 307 308 307 308 310 321 325 328 329 334 336 340 345 349 353 354 356 356 357 358 359 359 357 357 358 359 364 366 368 369 370 371 372 371 372 373 372 371
295 301 302 298 303 305 307 309 309 305 316 324 323 326 335 335 338 339 343 346 350 356 358 367 363 362 360 362 364 363 359 361 364 367 367 369 371 372 371 370 373 374 373 373
296 299 290 302 309 308 307 309 312 313 321 323 324 325 336 336 339 340 343 346 350 352 358 360 360 365 368 363 370 366 364 362 365 367 366 370 371 371 374 372 373 372 373 375
294 294 299 302 306 306 304 306 313 313 321 323 324 326 334 338 341 342 345 350 352 354 357 362 361 366 364 366 363 365 366 366 366 368 368 370 369 372 373 372 373 373 373 375
296 292 291 306 312 317 316 303 321 322 321 322 324 317 327 339 341 341 342 344 347 351 356 359 367 365 363 363 363 362 363 368 369 371 370 369 372 373 373 374 373 370 372 371
294 294 301 310 314 315 303 307 321 322 324 325 324 328 335 337 337 338 338 338 345 350 355 361 367 368 362 362 364 365 367 369 372 373 373 374 375 375 373 373 372 372 372 361
295 293 292 314 315 307 312 320 321 324 325 326 328 330 333 332 332 332 332 333 337 343 354 357 357 368 371 365 370 370 369 369 370 373 369 372 375 373 374 372 373 370 365 359
297 298 313 315 316 318 319 318 319 322 323 326 327 330 330 328 327 327 328 328 332 337 350 349 352 355 365 375 377 372 371 370 370 372 370 373 372 372 371 372 368 369 361 353
301 309 310 312 317 318 320 319 319 320 320 323 325 328 327 326 326 324 324 323 326 329 341 338 340 342 343 353 377 375 370 372 371 370 368 373 373 372 369 366 365 366 357 351
301 308 309 312 314 316 318 320 320 319 320 321 323 326 328 327 327 325 324 323 325 327 328 329 331 331 332 339 347 368 370 369 369 368 366 369 371 362 365 366 354 365 362 356
299 305 308 309 313 315 316 316 318 318 318 322 323 324 327 325 326 324 322 322 322 324 325 327 326 325 326 331 336 352 366 365 364 363 365 366 351 345 312 311 310 316 327 347
300 305 309 311 314 314 314 315 317 319 321 320 322 324 325 324 324 322 323 321 319 319 320 325 324 326 326 327 334 348 368 364 364 357 361 361 358 356 351 329 306 303 307 319
306 309 307 310 308 311 313 316 317 319 319 319 321 323 324 323 323 323 323 322 322 321 321 320 324 327 327 328 331 341 359 338 362 358 356 355 356 358 359 358 356 352 310 306
304 308 307 310 310 309 310 314 316 316 318 317 318 320 320 321 321 323 323 323 322 319 320 323 319 322 326 330 333 339 349 353 361 356 365 349 356 359 358 360 359 347 334 317
302 304 305 305 305 307 307 312 312 313 315 317 316 316 320 320 320 321 321 322 318 318 319 317 322 319 323 324 333 337 342 332 340 357 356 360 359 358 359 362 355 348 347 329
300 300 302 302 301 304 305 310 311 312 313 314 316 317 318 319 318 316 317 319 320 320 320 319 320 323 325 322 325 334 334 339 331 347 348 351 355 354 357 361 358 352 346 330
300 301 303 303 303 303 306 308 310 311 312 314 316 317 316 315 316 314 315 316 317 318 317 319 321 322 323 322 325 328 333 336 335 336 334 337 340 341 347 352 353 350 337 322
297 297 298 300 301 303 308 307 310 311 312 313 312 312 314 314 314 316 313 312 313 313 314 317 318 321 322 320 324 325 324 328 332 329 332 326 333 333 331 331 339 347 333 327
298 299 299 300 302 302 303 307 309 310 310 311 312 311 311 310 311 314 315 310 311 311 316 314 316 317 323 321 320 321 321 323 323 323 324 329 330 330 328 317 324 326 327 336
300 301 301 301 301 303 304 305 306 307 309 309 308 309 310 310 308 308 309 306 310 311 312 314 313 310 314 314 319 320 319 318 317 319 319 320 325 324 321 321 320 317 317 319
305 304 304 305 303 303 305 305 305 307 306 307 306 306 307 309 309 306 306 306 307 306 308 310 307 308 310 316 318 318 318 318 318 317 317 318 318 316 314 315 315 315 313 312
305 305 304 305 305 305 306 306 306 306 305 306 306 308 305 304 304 302 300 306 305 305 306 307 306 306 307 316 316 317 316 317 317 317 317 316 316 314 313 312 310 310 309 309
307 305 304 306 307 305 304 308 307 308 308 308 307 309 307 303 304 305 306 304 303 304 305 305 305 305 308 313 312 313 312 313 314 316 316 308 315 314 314 312 311 310 309 307
304 304 304 303 303 303 306 307 306 306 307 310 309 309 310 307 304 305 306 306 303 305 306 303 305 305 308 309 309 310 312 310 310 313 314 314 313 313 314 315 312 311 311 310
303 300 302 303 302 302 302 303 302 303 303 304 306 306 306 307 306 306 307 305 306 305 305 306 305 305 306 307 308 308 308 307 307 308 307 309 310 310 311 311 312 312 311 310
302 298 302 302 303 303 302 302 302 303 303 303 303 306 306 306 305 305 304 305 305 305 305 305 305 304 304 305 307 308 308 307 301 306 307 307 307 307 308 308 309 309 307 306
Wind_Speed
20 18 16 15 21 25 21 21 18 16 14 17 18 20 9 6 10 12 12 10 8 12 13 15 14 14 14 15 14 14 15 15 15 13 12 11 10 9 8 8 8 6 6 5
16 15 18 14 13 19 20 18 20 21 9 14 16 18 12 8 11 12 10 14 15 19 10 12 13 13 13 12 13 14 15 15 13 12 11 11 9 9 9 9 7 7 6 5
15 15 15 15 16 12 14 20 18 17 9 15 17 12 17 9 11 12 12 13 14 14 12 7 9 9 11 11 11 11 13 13 13 12 12 11 10 9 9 9 7 6 6 5
12 14 19 12 15 14 13 14 12 17 16 13 8 6 17 10 12 12 11 12 11 12 14 9 7 6 6 10 7 11 12 13 12 12 12 10 10 9 8 8 8 7 6 5
10 12 13 19 10 11 17 15 12 14 11 11 9 4 13 10 9 11 12 10 9 11 11 11 7 6 8 7 10 10 11 13 13 13 12 10 11 10 9 8 7 7 6 6
9 14 20 11 12 22 14 11 16 16 14 11 9 4 8 12 14 11 13 12 11 13 17 13 8 8 9 9 9 10 11 11 11 11 12 11 11 10 9 8 7 7 7 11
12 9 4 10 12 17 10 8 11 11 12 12 9 7 9 14 15 17 13 12 14 13 16 9 8 6 10 10 9 10 9 9 10 10 10 10 10 9 9 9 8 8 7 9
11 16 11 13 7 7 8 14 16 14 11 9 7 8 15 14 13 14 18 17 13 13 12 14 15 3 6 8 7 9 9 9 10 10 10 9 11 10 10 9 8 7 10 8
2 5 11 12 12 11 12 10 14 13 16 16 10 14 13 12 12 11 12 13 13 14 10 10 12 14 6 2 4 8 8 9 10 11 10 10 12 11 10 9 9 9 8 7
9 13 10 10 12 11 11 11 9 11 13 13 12 10 11 10 9 8 8 9 9 11 9 9 11 13 13 15 3 6 8 9 9 10 10 11 10 9 9 9 9 9 8 7
11 7 4 12 10 12 12 13 11 9 10 13 12 7 9 7 7 7 8 8 8 9 8 8 10 14 14 15 15 6 7 9 10 9 10 11 7 5 8 10 8 11 10 10
4 15 9 8 9 12 13 14 10 7 7 9 12 9 11 9 7 7 8 8 9 10 11 11 12 15 16 16 15 14 8 8 9 9 10 10 8 6 12 10 8 3 16 13
8 18 8 8 8 12 11 15 3 9 15 6 11 10 10 9 7 4 7 10 12 12 13 13 17 13 16 16 15 17 9 11 10 11 11 10 10 8 7 5 14 18 12 14
16 10 8 3 5 12 11 15 10 7 7 9 8 10 8 10 9 10 5 6 9 13 16 15 15 15 14 14 14 15 13 14 9 9 11 11 11 10 9 8 6 5 15 13
6 1 2 3 8 9 13 10 6 8 7 7 10 9 10 12 13 12 11 12 12 12 12 12 12 16 14 14 11 11 9 10 9 6 2 8 10 10 8 10 8 9 6 8
2 3 3 7 10 9 14 10 7 9 8 8 9 9 8 10 12 13 14 13 13 14 15 15 12 13 14 10 13 12 11 18 10 10 11 9 6 6 9 6 10 8 7 6
6 4 6 3 8 11 11 4 5 5 5 8 6 9 8 7 13 13 13 13 12 13 14 15 14 12 11 12 12 10 11 12 17 12 12 11 10 11 7 5 5 5 8 9
5 8 7 4 6 9 9 6 6 5 5 6 6 8 10 11 11 12 13 13 12 13 15 14 14 10 12 15 13 7 8 8 11 11 10 10 10 9 8 10 7 6 7 7
14 11 9 10 10 11 1 5 1 4 7 5 8 9 8 10 10 9 14 12 13 13 14 14 16 14 13 15 8 8 7 7 10 11 11 11 14 13 10 9 9 7 6 7
10 10 10 10 10 8 8 7 5 5 8 8 10 8 11 13 12 10 13 14 11 10 11 14 13 12 10 13 10 9 11 12 10 8 11 11 8 4 5 6 8 9 10 4
12 13 11 7 7 5 2 2 5 8 6 11 11 8 9 11 12 12 12 10 12 13 11 11 11 11 10 14 11 12 11 11 11 11 10 8 5 7 9 8 7 8 7 7
11 9 10 10 9 6 4 4 8 8 12 11 10 10 9 9 9 12 12 11 9 14 9 8 9 17 14 9 9 11 10 9 8 8 8 7 7 9 8 9 8 8 8 7
5 6 8 7 8 9 8 7 8 9 9 9 10 8 8 8 9 9 10 11 9 10 10 10 14 20 19 8 7 8 9 8 7 7 5 4 7 8 6 8 7 6 9 9
6 7 8 5 5 4 3 4 7 6 6 8 7 7 8 8 8 9 8 10 13 10 10 10 14 19 9 9 9 9 10 8 7 7 6 7 7 8 6 3 5 4 10 9
5 4 5 6 7 5 4 1 2 3 4 2 5 5 8 8 6 7 7 7 10 11 10 6 14 17 10 9 9 9 8 9 8 7 7 7 8 7 6 7 8 9 10 10
2 3 0 1 3 4 8 7 4 6 6 5 7 7 7 9 7 7 5 7 9 10 10 9 9 10 10 10 9 9 10 10 10 9 10 9 10 9 9 10 11 10 10 10
6 3 1 4 4 5 5 4 6 10 9 8 6 6 5 5 4 6 8 8 8 7 7 8 9 10 10 10 9 8 8 8 9 9 9 9 9 10 10 10 9 9 9 10
Wind_Direction
281 304 300 293 213 225 232 234 240 240 174 162 171 148 92 48 46 50 32 18 348 322 160 164 170 169 175 178 180 178 178 189 195 198 195 204 200 199 189 192 209 220 221 207
284 293 285 276 281 223 236 230 242 256 250 125 124 114 102 28 62 54 32 25 12 346 147 158 163 165 169 176 175 171 178 187 186 194 195 199 199 189 186 193 201 194 214 218
264 261 258 258 255 261 239 238 235 241 77 60 61 49 73 63 31 45 32 36 8 351 350 117 147 163 165 170 167 169 176 179 182 185 195 193 190 189 177 184 183 202 194 207
275 262 248 238 225 248 262 268 272 251 95 85 79 90 80 59 55 26 26 41 8 351 337 338 158 164 167 165 173 171 171 179 180 184 193 188 184 182 174 182 186 186 197 188
252 254 264 247 216 228 225 244 275 300 56 65 32 63 60 26 60 64 359 35 17 345 323 303 269 174 180 188 177 180 181 179 181 182 187 186 185 176 174 176 189 184 183 152
258 242 240 37 344 344 321 198 16 7 21 16 350 40 25 22 26 29 30 7 7 340 308 289 280 180 176 196 181 191 193 183 184 184 186 187 180 176 175 177 186 181 193 135
235 255 135 354 331 330 251 30 354 14 21 3 25 33 46 26 11 4 1 355 5 337 307 325 292 210 181 187 202 186 188 182 182 182 183 181 169 169 173 181 176 201 151 129
229 238 238 355 47 5 345 341 3 2 12 3 6 25 47 38 20 10 349 349 2 339 338 350 358 310 171 187 187 171 178 180 181 179 181 177 169 169 174 182 179 183 131 135
223 224 68 44 69 50 22 353 1 13 358 348 18 50 47 38 24 12 7 352 344 342 323 345 4 24 7 161 180 164 180 182 176 174 184 168 168 171 175 183 173 154 151 146
319 84 68 44 53 41 31 12 19 17 4 355 44 47 57 48 42 25 11 10 341 325 337 356 5 24 12 346 219 181 187 179 166 170 183 160 167 173 183 182 187 157 155 156
277 96 127 64 32 12 16 8 10 43 27 346 6 53 80 63 59 44 30 18 354 359 346 7 9 27 15 346 343 208 191 177 172 175 189 163 162 185 203 185 212 165 172 169
29 334 346 19 6 6 356 350 8 27 58 5 6 12 78 58 55 54 44 32 22 11 351 21 31 30 17 348 341 325 190 186 183 187 188 173 145 121 50 50 15 120 166 162
287 305 327 333 335 7 341 328 7 20 21 51 9 9 46 68 48 89 38 38 27 14 6 7 33 24 29 351 342 331 229 198 195 197 182 176 167 169 143 67 72 53 48 139
288 282 268 11 344 336 327 311 304 105 66 10 49 15 26 48 54 44 74 59 42 31 21 13 8 17 27 358 345 339 340 249 205 214 177 175 176 180 173 152 142 108 50 44
320 77 23 360 358 358 332 318 269 72 69 73 23 34 28 44 49 51 52 32 36 37 30 25 10 4 15 357 352 345 350 355 313 143 174 195 170 164 187 145 164 114 111 71
276 312 38 42 355 5 339 291 64 57 24 35 64 27 30 43 49 44 42 52 31 24 19 12 23 9 359 348 357 4 3 16 29 33 26 30 61 79 47 58 103 121 138 124
304 25 332 70 6 357 327 322 44 49 32 23 36 61 15 56 59 37 39 41 46 30 24 19 7 17 11 7 14 2 4 20 28 30 35 26 42 36 36 85 98 113 114 152
47 13 22 20 6 343 303 314 73 48 49 30 28 43 51 33 56 49 40 34 40 38 29 15 3 5 21 15 31 357 359 15 40 38 31 30 53 33 27 36 35 93 118 134
78 54 24 18 9 325 66 0 45 68 52 40 65 53 46 47 42 54 56 33 33 27 29 10 8 11 22 12 15 39 14 15 31 47 41 40 38 27 16 25 15 40 105 127
127 108 101 68 47 19 4 355 27 82 62 61 67 54 58 48 27 36 77 49 29 8 31 15 20 1 8 0 3 41 32 43 20 24 68 55 43 319 13 36 48 34 24 23
178 171 135 150 193 174 120 8 16 46 45 63 65 53 70 83 57 33 31 63 32 354 32 30 18 7 347 349 24 41 38 41 34 30 34 51 51 28 14 15 43 60 47 22
59 51 51 73 108 110 103 97 68 51 46 51 60 49 44 46 83 77 44 24 40 359 32 23 8 353 349 6 49 46 47 46 61 45 25 19 63 50 20 14 15 33 46 42
105 74 79 63 26 27 44 66 75 79 67 55 33 31 84 58 49 54 48 31 24 359 30 23 357 347 341 46 57 61 51 41 66 73 62 47 67 67 40 34 18 34 44 26
48 55 18 61 139 119 78 15 0 41 92 97 75 61 31 36 59 37 54 45 9 355 60 12 356 343 355 48 50 54 58 40 22 67 41 60 61 67 73 100 61 60 64 47
22 15 51 356 332 70 101 353 84 90 12 133 116 96 91 81 34 50 35 33 38 1 29 46 13 349 32 29 40 47 66 47 25 24 55 44 38 50 37 41 52 41 50 33
53 16 57 86 31 3 21 4 21 35 353 47 30 16 47 47 23 27 36 36 39 20 18 12 36 14 1 10 26 38 46 50 21 27 36 32 33 29 19 22 31 39 34 34
132 296 91 111 68 78 54 39 10 39 21 4 67 339 32 50 45 353 11 25 30 26 18 9 20 20 352 355 12 20 50 58 57 18 43 37 34 29 17 22 29 34 29 34